Sally Plumb Plumb

Silver Star - 3,929 Points (23 9 1940 / Haverhill Suffolk England)

Stats

» Click to list general statistics » OR, select a date :

General Statistics

Visitors of the poet

Number of visitors of the poet’s mainpage in PoemHunter.Com

Attention : Numbers in this table does not indicate the total hits of poems of the poet, but indicates the hits of the poet’s main page.

Date Hits
05/21/2018 Monday 12
29%
05/20/2018 Sunday 12
29%
05/19/2018 Saturday 3
7%
05/18/2018 Friday 18
43%
05/17/2018 Thursday 9
21%
05/16/2018 Wednesday 15
36%
05/15/2018 Tuesday 16
39%
05/14/2018 Monday 20
48%
05/13/2018 Sunday 2
4%
05/12/2018 Saturday 8
19%
05/11/2018 Friday 4
9%
05/10/2018 Thursday 17
41%
05/09/2018 Wednesday 12
29%
05/08/2018 Tuesday 16
39%
05/07/2018 Monday 12
29%
05/06/2018 Sunday 41
100%
05/05/2018 Saturday 15
36%
05/04/2018 Friday 26
63%
05/03/2018 Thursday 17
41%
05/02/2018 Wednesday 19
46%

Reader rating & num.of MyPoemList’s

Click the captions of columns to change the order.

# Poem Title Submit Date Reader Rating Num.of MyPoemList’s
Rating Num.R.
1 Stability 01/07/2018 10.0 1 0
2 The Wake 01/06/2018 -- 0 0
3 Haloes 08/24/2017 9.0 1 0
4 Untitled 03/31/2017 9.0 1 0
5 Halt 12/08/2016 -- 0 0
6 Pair 12/07/2016 -- 0 0
7 Midnight 04/24/2016 10.0 1 0
8 Choice 04/23/2016 10.0 1 0
9 Escape 04/22/2016 -- 0 0
10 Refugee 02/21/2016 -- 0 0
11 Jacobs Ladder 02/20/2016 -- 0 0
12 The Big Cheat 02/19/2016 -- 0 0
13 Squaw 11/01/2015 10.0 3 1
14 Division 10/06/2015 -- 0 0
15 Vanity 08/25/2015 -- 0 0
16 Your Call 08/25/2015 -- 0 0
17 United 06/27/2015 -- 0 0
18 Sacrifice 06/27/2015 -- 0 0
19 Prayer For Night 06/27/2015 -- 0 0
20 Rocker Song 03/31/2015 -- 0 0
21 Nightwatch 11/04/2014 10.0 1 0
22 A Boy And A Frog (Kids Stuff) 10/23/2014 -- 0 1
23 The Slow Walk 08/09/2014 10.0 1 0
24 After 08/08/2014 -- 0 0
25 The Contest 06/05/2014 -- 0 0
26 Barn Owl 05/09/2014 10.0 1 0
27 Listen 05/08/2014 -- 0 0
28 Harmony 05/07/2014 10.0 1 0
29 Conflict 02/24/2014 10.0 2 0
30 Confession 02/11/2014 -- 0 0
31 Night Bird 02/07/2014 -- 0 0
32 Ebb Tide 02/03/2014 10.0 1 0
33 Many Hollows 01/03/2014 7.5 2 0
34 Night Ways 01/02/2014 -- 0 0
35 The Lion 01/01/2014 7.0 1 0
36 The Appointment 12/24/2013 -- 0 0
37 Flippancy 12/22/2013 9.0 2 0
38 Hit 12/21/2013 10.0 1 0
39 Negativity 11/11/2013 10.0 2 0
40 Too Old 10/28/2013 10.0 3 0
41 Three Phases 09/28/2013 10.0 1 0
42 Frightened Fourteen (Kids Stuff) 09/27/2013 10.0 1 0
43 Killing Time 09/23/2013 8.5 2 0
44 Rumour 08/30/2013 -- 0 0
45 Separation 08/14/2013 10.0 3 2
46 Shades Of Love 08/01/2013 10.0 4 1
47 Getting Fat 06/28/2013 9.7 3 0
48 Infinity 05/08/2013 9.8 11 1
49 Twilight 03/30/2013 10.0 4 2
50 Mind Healer 03/19/2013 9.5 2 0
51 Mute 03/18/2013 9.5 4 0
52 Down The Drain 03/07/2013 9.7 3 0
53 Monday Morning 03/06/2013 10.0 1 0
54 Imagination 03/05/2013 10.0 1 0
55 Earth Fire 12/08/2012 10.0 1 0
56 Nightmare 10/20/2012 10.0 2 0
57 Workday Weekday 10/17/2012 -- 0 0
58 Remorse 10/07/2012 -- 0 0
59 High Hopes 10/06/2012 -- 0 0
60 Lost For Words 10/04/2012 10.0 1 0
61 Confused? 08/15/2012 -- 0 0
62 Breakdown 08/14/2012 10.0 4 0
63 Departure 08/07/2012 10.0 2 0
64 Seagull 07/11/2012 10.0 4 0
65 Late Friday Night 06/29/2012 9.7 3 0
66 Rig Divers North Sea 06/28/2012 -- 0 0
67 Gossips 06/27/2012 10.0 3 0
68 Another Shade Of Blue 06/27/2012 10.0 5 1
69 Score 04/22/2012 10.0 2 0
70 Request 04/21/2012 10.0 1 0
71 Tough Love 04/18/2012 10.0 3 0
72 Stairway 03/23/2012 10.0 1 0
73 Wind And Rain 02/20/2012 10.0 3 0
74 Dawn 02/09/2012 -- 0 0
75 Defeat 02/08/2012 7.0 3 0
76 Jack Spratt 12/27/2011 9.7 3 0
77 Beyond 12/06/2011 -- 0 0
78 Undressed 12/05/2011 -- 0 0
79 Letter 11/28/2011 10.0 1 0
80 Fantasia 11/24/2011 -- 0 0
81 Betrayel 11/22/2011 -- 0 0
82 Grandmama 11/21/2011 -- 0 0
83 Crimes 11/01/2011 9.7 3 0
84 Swing High Swing Low 10/07/2011 10.0 1 1
85 Destiny 10/05/2011 10.0 1 0
86 Silken Thread 10/02/2011 -- 0 0
87 Seeing You 10/01/2011 10.0 1 0
88 Fractions 09/30/2011 -- 0 0
89 Question 09/28/2011 -- 0 0
90 Birth 09/09/2011 -- 0 0
91 The Voice Of Seduction 09/07/2011 -- 0 0
92 Second Depression 08/10/2011 -- 0 0
93 Crumbs 08/06/2011 10.0 1 0
94 Night Sky 07/08/2011 9.3 3 0
95 The Social Divide 07/04/2011 -- 0 0
96 Retort 07/01/2011 10.0 1 0
97 Mr Jones 06/15/2011 -- 0 0
98 Bitter Beginning 06/13/2011 -- 0 0
99 Imagine 06/03/2011 -- 0 0
100 Gabriel 06/02/2011 -- 0 0
101 The Shift Worker 05/25/2011 8.0 1 0
102 Downtown 05/20/2011 -- 0 0
103 Skin 05/19/2011 -- 0 0
104 Natural Tempo 05/18/2011 10.0 2 0
105 Magical Night 04/14/2011 10.0 1 0
106 Conversation 04/12/2011 -- 0 0
107 Aunt Summer Rose (Kids Stuff) 04/08/2011 -- 0 0
108 Eden's Gate 04/07/2011 -- 0 0
109 First Season 03/29/2011 -- 0 0
110 November 03/09/2011 10.0 1 0
111 Chores 03/08/2011 10.0 1 0
112 Torment 03/05/2011 -- 0 0
113 Over Time 02/19/2011 -- 0 0
114 The Thaw 02/18/2011 10.0 1 0
115 Jukes Song 02/14/2011 -- 0 0
116 Thinks Party 02/12/2011 10.0 2 1
117 Predator 02/11/2011 -- 0 0
118 Headless 02/08/2011 6.0 1 0
119 Annie May 01/06/2011 10.0 1 0
120 Look 01/05/2011 -- 0 0
121 Slough Of Despond 12/11/2010 10.0 2 0
122 The Dryad 12/04/2010 10.0 1 0
123 Christmas Day 12/03/2010 10.0 1 0
124 Snake Skin 12/01/2010 10.0 1 0
125 Opposition 11/12/2010 -- 0 0
126 Natures Way 10/13/2010 -- 0 0
127 Bad Rivers 10/12/2010 10.0 4 0
128 Calling Wind 10/01/2010 9.8 4 0
129 Decision 09/23/2010 10.0 1 0
130 Passing Tedious Time 08/26/2010 -- 0 0
131 Zero 08/10/2010 10.0 3 0
132 1957 08/04/2010 9.5 4 0
133 Singing Lesson 08/02/2010 -- 0 0
134 Evening At Home 06/29/2010 10.0 2 0
135 Not Tonight 06/28/2010 -- 0 0
136 6 P.M. 06/08/2010 9.5 2 0
137 Orange 06/01/2010 10.0 1 0
138 Yellow Iris 05/23/2010 10.0 1 0
139 Shower 05/22/2010 -- 0 0
140 Reunion 05/17/2010 -- 0 0
141 Shadow 05/16/2010 10.0 1 0
142 Explanation 05/15/2010 -- 0 0
143 Spirit 05/14/2010 10.0 2 1
144 The Haunted 05/13/2010 10.0 1 0
145 Live Music 05/13/2010 10.0 1 0
146 Wren 03/13/2010 10.0 1 0
147 Spring Weather 03/12/2010 -- 0 0
148 Breathing 02/09/2010 10.0 3 1
149 Unfamiliar Fantasy 01/22/2010 10.0 1 0
150 Climate Change 12/26/2009 10.0 1 0
151 Missing Person 12/25/2009 -- 0 0
152 Languor 12/24/2009 10.0 1 0
153 Side Affects 12/23/2009 10.0 2 0
154 Unspeakable 12/22/2009 10.0 1 0
155 Summer 12/14/2009 10.0 1 0
156 High 12/12/2009 -- 0 0
157 Speechless 12/05/2009 10.0 2 1
158 Insight 11/14/2009 10.0 3 0
159 The Haunted Sea (Kids Stuff) 11/05/2009 10.0 2 0
160 Flight 10/15/2009 10.0 3 0
161 Ripple 10/09/2009 10.0 1 0
162 Perfect Silence 10/07/2009 8.9 7 1
163 Starters 10/02/2009 10.0 1 0
164 Pastel 09/24/2009 10.0 3 0
165 Sleep 09/18/2009 10.0 4 0
166 Spirit Wings 09/07/2009 10.0 1 0
167 Annoyance 09/05/2009 10.0 3 0
168 Lyric 09/02/2009 10.0 3 0
169 Weeping Willow 08/29/2009 9.5 2 3
170 Ritual 08/12/2009 10.0 1 0
171 Enrichment 08/10/2009 10.0 1 0
172 Recruit 07/30/2009 10.0 1 0
173 Bebe 07/29/2009 10.0 3 1
174 Music 07/28/2009 10.0 2 0
175 Saturday Night And Sunday Morning 07/22/2009 -- 0 1
176 The Red Indian 07/10/2009 10.0 1 0
177 Be Kind Be Sweet 07/08/2009 9.5 2 1
178 Late Afternoon 07/07/2009 10.0 1 0
179 Left Undead 07/06/2009 -- 0 0
180 Cloud 07/02/2009 10.0 3 2
181 Foxglove 06/28/2009 10.0 1 0
182 The Chain 06/17/2009 -- 0 0
183 Song Of A Dying Infant 06/03/2009 10.0 1 0
184 Confrontation (Darfur) 05/29/2009 10.0 5 0
185 Late Summer 05/18/2009 -- 0 1
186 A Question Of God 05/17/2009 9.6 11 1
187 Death Of A Woman 05/12/2009 7.8 4 0
188 Angels 05/09/2009 10.0 6 1
189 A Dark Fire 05/08/2009 10.0 7 1
190 Fight 05/07/2009 10.0 2 0
191 We Are 05/06/2009 10.0 4 0
192 Shadow Street 05/05/2009 7.3 3 0
193 Rendezvous 05/04/2009 9.5 2 0
194 Lifting 05/03/2009 10.0 1 0
195 A Humorous Death 05/02/2009 10.0 11 3
196 Thought 05/01/2009 9.5 4 0
197 Leaving 04/30/2009 -- 0 0
198 The Queue 04/29/2009 10.0 1 0
199 Granpa 04/28/2009 10.0 1 0
200 Two Confused 04/27/2009 10.0 1 1
201 Breakfast 04/26/2009 9.7 7 1
202 Happiness Is Sacred 04/25/2009 10.0 1 0
203 Crucible 04/24/2009 9.7 3 0
204 Valentine 04/23/2009 10.0 2 1
205 Hettie 04/06/2009 10.0 2 0
206 Six A.M. 04/04/2009 -- 0 0
207 Diary 04/01/2009 9.3 3 2
208 Possession 03/31/2009 10.0 1 1
209 Pretence 03/30/2009 10.0 1 1
210 Sundial 03/29/2009 7.5 4 0
211 Sleep My Love 03/28/2009 10.0 2 2
212 Reynard 03/27/2009 -- 0 0
213 Lucifer 03/26/2009 -- 0 0
214 Picture 03/25/2009 10.0 1 2
215 Dream On 03/24/2009 10.0 1 2
216 Something Plus 03/23/2009 -- 0 1
217 Love 03/22/2009 10.0 1 0
218 Curse 03/21/2009 -- 0 0
219 Solitude 03/20/2009 10.0 1 1
220 Anger 03/19/2009 10.0 2 2
221 Moon Song 03/18/2009 10.0 2 2
222 Winter 03/15/2009 9.8 5 1
223 Summer Shade 03/15/2009 9.3 3 1
224 Skylark 03/15/2009 10.0 1 0
225 Simplicity 03/14/2009 10.0 1 0
226 Snowdrops 03/14/2009 10.0 1 2
227 Upside Down 03/14/2009 10.0 2 0
228 The Native 03/14/2009 10.0 2 0
229 Search 03/14/2009 10.0 2 0
230 Surprise Suprise 03/14/2009 10.0 1 0
231 Changeover 03/14/2009 10.0 3 1
232 He Is 03/14/2009 10.0 3 0
233 Guide 03/14/2009 10.0 2 1
234 Vow 03/14/2009 10.0 3 0
235 Cats 03/14/2009 9.5 2 1
236 Love After Death 03/14/2009 10.0 1 1
237 The Juveniles 03/14/2009 10.0 2 0
238 Serenade 03/14/2009 10.0 1 0
239 Poppies 03/14/2009 10.0 2 0
240 May 03/14/2009 10.0 1 0
241 Village Tree 03/14/2009 9.5 2 0
242 Sunrise 03/14/2009 10.0 4 1
243 Sparrows 03/14/2009 10.0 3 0
244 Figment 03/14/2009 10.0 2 1
245 A Slow Smoke 03/14/2009 9.8 4 1
246 Time Past 03/14/2009 10.0 2 2
247 Good Night 03/14/2009 10.0 2 1
248 The Satyr 03/14/2009 10.0 1 0
249 Somewhere 03/14/2009 10.0 1 1
250 Formation 03/14/2009 -- 0 1
251 Wildflowers Live On 03/14/2009 10.0 4 2
252 Apple Tree 03/14/2009 10.0 9 2
253 Purer Than White 03/14/2009 10.0 2 0
254 Goodnight Baby Love 03/14/2009 10.0 1 1
255 Storm 03/14/2009 10.0 1 2
256 Headstones 03/14/2009 10.0 1 0
257 Underfoot 03/14/2009 10.0 1 0
258 Fantasy 03/14/2009 10.0 3 1
259 Smile 03/14/2009 10.0 2 2
260 Judas 03/14/2009 10.0 1 0
261 Domestic 03/14/2009 10.0 2 0
262 Ghost 03/14/2009 10.0 2 2
263 Rowley 03/14/2009 -- 0 0
264 Starless 03/14/2009 10.0 2 2
265 Reflection 03/14/2009 -- 0 2
266 Pretty 03/14/2009 9.0 2 1
[Report Error]